Time,TemperatureF,DewpointF,PressureIn,WindDirection,WindDirectionDegrees,WindSpeedMPH,WindSpeedGustMPH,Humidity,HourlyPrecipIn,Conditions,Clouds,dailyrainin,SoftwareType,DateUTC
2013-04-19 00:01:00,52.2,49.3,28.35,SW,225,5.0,12.0,90,0.00,,,0.00,meteohub,2013-04-19 04:01:00,
2013-04-19 00:02:00,52.2,49.3,28.34,NW,315,8.0,12.0,90,0.00,,,0.00,meteohub,2013-04-19 04:02:00,
2013-04-19 00:03:00,52.2,49.3,28.34,SE,135,4.0,12.0,90,0.00,,,0.00,meteohub,2013-04-19 04:03:00,
2013-04-19 00:08:00,52.3,49.8,28.34,SE,135,8.0,9.0,91,0.00,,,0.00,meteohub,2013-04-19 04:08:00,
2013-04-19 00:13:00,52.3,49.5,28.33,South,180,8.0,15.0,90,0.00,,,0.00,meteohub,2013-04-19 04:13:00,
2013-04-19 00:18:00,52.5,49.6,28.33,SSE,158,9.0,18.0,90,0.00,,,0.00,meteohub,2013-04-19 04:18:00,
2013-04-19 00:23:00,52.5,49.6,28.33,SSE,158,5.0,18.0,90,0.00,,,0.00,meteohub,2013-04-19 04:23:00,
2013-04-19 00:28:00,52.5,49.6,28.32,SE,135,5.0,18.0,90,0.00,,,0.00,meteohub,2013-04-19 04:28:00,
2013-04-19 00:33:00,52.9,50.0,28.32,South,180,9.0,11.0,90,0.00,,,0.00,meteohub,2013-04-19 04:33:00,
2013-04-19 00:38:00,52.9,50.0,28.32,SE,135,8.0,14.0,90,0.00,,,0.00,meteohub,2013-04-19 04:38:00,
2013-04-19 00:43:00,53.1,50.2,28.32,SE,135,7.0,14.0,90,0.00,,,0.00,meteohub,2013-04-19 04:43:00,
2013-04-19 00:48:00,53.2,50.4,28.31,North,0,3.0,14.0,90,0.00,,,0.00,meteohub,2013-04-19 04:48:00,
2013-04-19 00:53:00,53.8,50.4,28.31,SSE,158,6.0,14.0,88,0.00,,,0.00,meteohub,2013-04-19 04:53:00,
2013-04-19 00:58:00,54.0,50.5,28.30,North,0,12.0,14.0,88,0.00,,,0.00,meteohub,2013-04-19 04:58:00,
2013-04-19 01:04:00,54.1,50.4,28.30,South,180,7.0,14.0,87,0.00,,,0.00,meteohub,2013-04-19 05:04:00,
2013-04-19 01:09:00,54.3,50.5,28.31,South,180,10.0,16.0,87,0.00,,,0.00,meteohub,2013-04-19 05:09:00,
2013-04-19 01:14:00,54.5,50.7,28.31,SE,135,7.0,17.0,87,0.00,,,0.00,meteohub,2013-04-19 05:14:00,
2013-04-19 01:19:00,54.7,50.5,28.31,SW,225,5.0,17.0,86,0.00,,,0.00,meteohub,2013-04-19 05:19:00,
2013-04-19 01:24:00,54.9,50.4,28.32,South,180,8.0,19.0,85,0.00,,,0.00,meteohub,2013-04-19 05:24:00,
2013-04-19 01:29:00,55.0,50.5,28.31,SW,225,10.0,19.0,85,0.00,,,0.00,meteohub,2013-04-19 05:29:00,
2013-04-19 01:34:00,55.4,50.7,28.31,SE,135,7.0,19.0,84,0.00,,,0.00,meteohub,2013-04-19 05:34:00,
2013-04-19 01:39:00,55.6,50.9,28.31,South,180,5.0,15.0,84,0.00,,,0.00,meteohub,2013-04-19 05:39:00,
2013-04-19 01:44:00,55.6,50.9,28.30,SE,135,11.0,15.0,84,0.00,,,0.00,meteohub,2013-04-19 05:44:00,
2013-04-19 01:49:00,55.9,50.9,28.29,SE,135,10.0,15.0,83,0.00,,,0.00,meteohub,2013-04-19 05:49:00,
2013-04-19 01:54:00,55.9,50.9,28.29,West,270,8.0,19.0,83,0.00,,,0.00,meteohub,2013-04-19 05:54:00,
2013-04-19 01:59:00,56.1,51.1,28.29,South,180,15.0,19.0,83,0.00,,,0.00,meteohub,2013-04-19 05:59:00,
2013-04-19 02:04:00,56.1,50.7,28.29,SW,225,14.0,21.0,82,0.00,,,0.00,meteohub,2013-04-19 06:04:00,
2013-04-19 02:09:00,56.3,50.9,28.28,East,90,8.0,21.0,82,0.00,,,0.00,meteohub,2013-04-19 06:09:00,
2013-04-19 02:14:00,56.1,50.7,28.28,WNW,293,5.0,21.0,82,0.00,,,0.00,meteohub,2013-04-19 06:14:00,
2013-04-19 02:20:00,56.1,50.7,28.29,West,270,5.0,17.0,82,0.00,,,0.00,meteohub,2013-04-19 06:20:00,
2013-04-19 02:25:00,55.9,50.5,28.28,NW,315,6.0,17.0,82,0.00,,,0.00,meteohub,2013-04-19 06:25:00,
2013-04-19 02:30:00,55.9,50.5,28.28,NE,45,5.0,9.0,82,0.00,,,0.00,meteohub,2013-04-19 06:30:00,
2013-04-19 02:35:00,55.9,50.5,28.28,East,90,9.0,9.0,82,0.00,,,0.00,meteohub,2013-04-19 06:35:00,
2013-04-19 02:40:00,55.8,50.4,28.27,NE,45,5.0,9.0,82,0.00,,,0.00,meteohub,2013-04-19 06:40:00,
2013-04-19 02:45:00,55.8,50.7,28.27,SW,225,5.0,9.0,83,0.00,,,0.00,meteohub,2013-04-19 06:45:00,
2013-04-19 02:50:00,55.9,50.9,28.27,SE,135,11.0,11.0,83,0.00,,,0.00,meteohub,2013-04-19 06:50:00,
2013-04-19 02:55:00,55.9,50.5,28.27,South,180,2.0,11.0,82,0.00,,,0.00,meteohub,2013-04-19 06:55:00,
2013-04-19 03:00:00,55.9,50.9,28.26,South,180,4.0,13.0,83,0.00,,,0.00,meteohub,2013-04-19 07:00:00,
2013-04-19 03:05:00,55.9,50.9,28.27,ESE,113,7.0,13.0,83,0.00,,,0.00,meteohub,2013-04-19 07:05:00,
2013-04-19 03:10:00,55.9,50.9,28.25,South,180,10.0,13.0,83,0.00,,,0.00,meteohub,2013-04-19 07:10:00,
2013-04-19 03:15:00,56.1,50.7,28.25,SE,135,5.0,17.0,82,0.00,,,0.00,meteohub,2013-04-19 07:15:00,
2013-04-19 03:20:00,56.1,50.7,28.25,SE,135,7.0,17.0,82,0.00,,,0.00,meteohub,2013-04-19 07:20:00,
2013-04-19 03:25:00,56.1,50.7,28.25,South,180,8.0,17.0,82,0.00,,,0.00,meteohub,2013-04-19 07:25:00,
2013-04-19 03:30:00,56.1,50.7,28.24,SW,225,5.0,8.0,82,0.00,,,0.00,meteohub,2013-04-19 07:30:00,
2013-04-19 03:36:00,56.1,51.1,28.22,NE,45,8.0,12.0,83,0.00,,,0.00,meteohub,2013-04-19 07:36:00,
2013-04-19 03:41:00,56.1,51.1,28.23,SW,225,8.0,12.0,83,0.00,,,0.00,meteohub,2013-04-19 07:41:00,
2013-04-19 03:46:00,55.9,50.9,28.22,West,270,6.0,12.0,83,0.00,,,0.00,meteohub,2013-04-19 07:46:00,
2013-04-19 03:51:00,55.9,51.3,28.22,SE,135,5.0,9.0,84,0.00,,,0.00,meteohub,2013-04-19 07:51:00,
2013-04-19 03:56:00,55.8,51.1,28.22,NE,45,4.0,9.0,84,0.00,,,0.00,meteohub,2013-04-19 07:56:00,
2013-04-19 04:01:00,55.8,51.1,28.22,NNE,23,10.0,10.0,84,0.00,,,0.00,meteohub,2013-04-19 08:01:00,
2013-04-19 04:06:00,55.9,51.3,28.22,South,180,10.0,11.0,84,0.00,,,0.00,meteohub,2013-04-19 08:06:00,
2013-04-19 04:11:00,55.9,51.3,28.22,West,270,8.0,11.0,84,0.00,,,0.00,meteohub,2013-04-19 08:11:00,
2013-04-19 04:16:00,56.1,51.4,28.22,South,180,19.0,19.0,84,0.00,,,0.00,meteohub,2013-04-19 08:16:00,
2013-04-19 04:21:00,56.3,51.4,28.23,South,180,7.0,19.0,84,0.00,,,0.00,meteohub,2013-04-19 08:21:00,
2013-04-19 04:26:00,56.5,51.6,28.23,SE,135,15.0,19.0,84,0.00,,,0.00,meteohub,2013-04-19 08:26:00,
2013-04-19 04:31:00,56.5,51.6,28.23,SE,135,10.0,19.0,84,0.00,,,0.00,meteohub,2013-04-19 08:31:00,
2013-04-19 04:36:00,56.7,51.8,28.23,South,180,11.0,15.0,84,0.00,,,0.00,meteohub,2013-04-19 08:36:00,
2013-04-19 04:41:00,56.7,51.6,28.22,SW,225,3.0,15.0,83,0.00,,,0.00,meteohub,2013-04-19 08:41:00,
2013-04-19 04:47:00,56.8,52.0,28.21,SE,135,15.0,15.0,84,0.00,,,0.00,meteohub,2013-04-19 08:47:00,
2013-04-19 04:52:00,57.0,52.0,28.21,East,90,11.0,15.0,83,0.00,,,0.00,meteohub,2013-04-19 08:52:00,
2013-04-19 04:57:00,56.8,51.8,28.22,SE,135,6.0,15.0,83,0.00,,,0.00,meteohub,2013-04-19 08:57:00,
2013-04-19 05:02:00,57.0,52.0,28.21,SE,135,13.0,15.0,83,0.00,,,0.00,meteohub,2013-04-19 09:02:00,
2013-04-19 05:07:00,57.2,51.8,28.22,SE,135,7.0,14.0,82,0.00,,,0.00,meteohub,2013-04-19 09:07:00,
2013-04-19 05:12:00,57.2,51.8,28.21,SE,135,9.0,14.0,82,0.00,,,0.00,meteohub,2013-04-19 09:12:00,
2013-04-19 05:17:00,57.6,52.2,28.21,SE,135,8.0,14.0,82,0.00,,,0.00,meteohub,2013-04-19 09:17:00,
2013-04-19 05:22:00,57.6,51.8,28.20,SE,135,15.0,15.0,81,0.00,,,0.00,meteohub,2013-04-19 09:22:00,
2013-04-19 05:27:00,57.6,51.8,28.20,SSE,158,8.0,16.0,81,0.00,,,0.00,meteohub,2013-04-19 09:27:00,
2013-04-19 05:32:00,57.2,51.4,28.20,South,180,12.0,16.0,81,0.00,,,0.00,meteohub,2013-04-19 09:32:00,
2013-04-19 05:37:00,57.2,51.8,28.21,SE,135,9.0,16.0,82,0.00,,,0.00,meteohub,2013-04-19 09:37:00,
2013-04-19 05:42:00,57.2,51.8,28.21,SSE,158,10.0,14.0,82,0.00,,,0.00,meteohub,2013-04-19 09:42:00,
2013-04-19 05:47:00,57.4,52.0,28.20,South,180,10.0,13.0,82,0.00,,,0.00,meteohub,2013-04-19 09:47:00,
2013-04-19 05:52:00,57.2,51.8,28.20,South,180,10.0,13.0,82,0.00,,,0.00,meteohub,2013-04-19 09:52:00,
2013-04-19 05:57:00,57.6,52.2,28.19,SSE,158,13.0,15.0,82,0.00,,,0.00,meteohub,2013-04-19 09:57:00,
2013-04-19 06:02:00,57.6,52.2,28.20,West,270,6.0,15.0,82,0.00,,,0.00,meteohub,2013-04-19 10:02:00,
2013-04-19 06:07:00,57.6,51.8,28.19,SSE,158,19.0,19.0,81,0.00,,,0.00,meteohub,2013-04-19 10:07:00,
2013-04-19 06:12:00,57.6,52.2,28.19,South,180,11.0,19.0,82,0.00,,,0.00,meteohub,2013-04-19 10:12:00,
2013-04-19 06:17:00,57.7,52.0,28.19,SE,135,5.0,19.0,81,0.00,,,0.00,meteohub,2013-04-19 10:17:00,
2013-04-19 06:22:00,57.9,52.2,28.20,SW,225,12.0,19.0,81,0.00,,,0.00,meteohub,2013-04-19 10:22:00,
2013-04-19 06:27:00,58.1,52.3,28.19,South,180,11.0,21.0,81,0.00,,,0.00,meteohub,2013-04-19 10:27:00,
2013-04-19 06:32:00,58.3,52.5,28.19,SE,135,9.0,21.0,81,0.00,,,0.00,meteohub,2013-04-19 10:32:00,
2013-04-19 06:37:00,58.5,52.7,28.20,South,180,5.0,21.0,81,0.00,,,0.00,meteohub,2013-04-19 10:37:00,
2013-04-19 06:42:00,58.6,52.5,28.19,SW,225,7.0,14.0,80,0.00,,,0.00,meteohub,2013-04-19 10:42:00,
2013-04-19 06:47:00,58.6,52.5,28.19,SE,135,11.0,12.0,80,0.00,,,0.00,meteohub,2013-04-19 10:47:00,
2013-04-19 06:52:00,58.6,52.9,28.18,West,270,9.0,16.0,81,0.00,,,0.00,meteohub,2013-04-19 10:52:00,
2013-04-19 06:57:00,58.8,52.7,28.19,East,90,4.0,19.0,80,0.00,,,0.00,meteohub,2013-04-19 10:57:00,
2013-04-19 07:02:00,59.0,52.5,28.19,NW,315,5.0,22.0,79,0.00,,,0.00,meteohub,2013-04-19 11:02:00,
2013-04-19 07:07:00,59.2,52.7,28.20,NE,45,10.0,22.0,79,0.00,,,0.00,meteohub,2013-04-19 11:07:00,
2013-04-19 07:12:00,59.2,52.3,28.20,East,90,9.0,22.0,78,0.00,,,0.00,meteohub,2013-04-19 11:12:00,
2013-04-19 07:17:00,59.2,52.7,28.20,South,180,14.0,14.0,79,0.00,,,0.00,meteohub,2013-04-19 11:17:00,
2013-04-19 07:22:00,59.2,52.7,28.20,SE,135,12.0,17.0,79,0.00,,,0.00,meteohub,2013-04-19 11:22:00,
2013-04-19 07:27:00,59.4,52.5,28.20,South,180,16.0,17.0,78,0.00,,,0.00,meteohub,2013-04-19 11:27:00,
2013-04-19 07:32:00,59.5,52.7,28.20,South,180,4.0,17.0,78,0.00,,,0.00,meteohub,2013-04-19 11:32:00,
2013-04-19 07:37:00,59.5,52.7,28.20,SE,135,5.0,16.0,78,0.00,,,0.00,meteohub,2013-04-19 11:37:00,
2013-04-19 07:42:00,59.5,52.7,28.19,South,180,4.0,16.0,78,0.00,,,0.00,meteohub,2013-04-19 11:42:00,
2013-04-19 07:47:00,59.4,52.5,28.19,SSE,158,8.0,15.0,78,0.00,,,0.00,meteohub,2013-04-19 11:47:00,
2013-04-19 07:52:00,59.4,52.9,28.19,North,0,4.0,15.0,79,0.00,,,0.00,meteohub,2013-04-19 11:52:00,
2013-04-19 07:57:00,59.2,52.7,28.18,SE,135,11.0,11.0,79,0.00,,,0.00,meteohub,2013-04-19 11:57:00,
2013-04-19 08:02:00,59.4,52.5,28.18,South,180,9.0,11.0,78,0.00,,,0.00,meteohub,2013-04-19 12:02:00,
2013-04-19 08:07:00,59.7,52.5,28.18,SW,225,11.0,11.0,77,0.00,,,0.00,meteohub,2013-04-19 12:07:00,
2013-04-19 08:12:00,60.1,52.5,28.19,North,0,4.0,20.0,76,0.00,,,0.00,meteohub,2013-04-19 12:12:00,
2013-04-19 08:17:00,60.4,52.5,28.18,NE,45,8.0,20.0,75,0.00,,,0.00,meteohub,2013-04-19 12:17:00,
2013-04-19 08:22:00,60.8,52.5,28.18,South,180,6.0,20.0,74,0.00,,,0.00,meteohub,2013-04-19 12:22:00,
2013-04-19 08:27:00,61.5,52.7,28.18,SE,135,8.0,9.0,73,0.00,,,0.00,meteohub,2013-04-19 12:27:00,
2013-04-19 08:32:00,62.1,52.5,28.18,South,180,7.0,10.0,71,0.00,,,0.00,meteohub,2013-04-19 12:32:00,
2013-04-19 08:37:00,62.4,52.9,28.17,North,0,2.0,11.0,71,0.00,,,0.00,meteohub,2013-04-19 12:37:00,
2013-04-19 08:42:00,62.2,52.3,28.18,NW,315,5.0,11.0,70,0.00,,,0.00,meteohub,2013-04-19 12:42:00,
2013-04-19 08:47:00,61.9,52.0,28.18,SW,225,4.0,11.0,70,0.00,,,0.00,meteohub,2013-04-19 12:47:00,
2013-04-19 08:52:00,61.5,52.0,28.18,South,180,11.0,11.0,71,0.00,,,0.00,meteohub,2013-04-19 12:52:00,
2013-04-19 08:57:00,61.3,52.2,28.18,SE,135,7.0,11.0,72,0.00,,,0.00,meteohub,2013-04-19 12:57:00,
2013-04-19 09:02:00,61.7,52.2,28.17,SE,135,9.0,11.0,71,0.00,,,0.00,meteohub,2013-04-19 13:02:00,
2013-04-19 09:07:00,61.7,52.2,28.17,South,180,6.0,11.0,71,0.00,,,0.00,meteohub,2013-04-19 13:07:00,
2013-04-19 09:12:00,61.7,52.2,28.17,East,90,6.0,9.0,71,0.00,,,0.00,meteohub,2013-04-19 13:12:00,
2013-04-19 09:17:00,63.0,52.7,28.17,East,90,3.0,14.0,69,0.00,,,0.00,meteohub,2013-04-19 13:17:00,
2013-04-19 09:22:00,63.9,52.7,28.17,North,0,4.0,14.0,67,0.00,,,0.00,meteohub,2013-04-19 13:22:00,
2013-04-19 09:27:00,64.6,52.5,28.16,SSE,158,8.0,14.0,65,0.00,,,0.00,meteohub,2013-04-19 13:27:00,
2013-04-19 09:33:00,64.0,52.0,28.17,SE,135,5.0,12.0,65,0.00,,,0.00,meteohub,2013-04-19 13:33:00,
2013-04-19 09:38:00,64.8,51.8,28.15,West,270,7.0,12.0,63,0.00,,,0.00,meteohub,2013-04-19 13:38:00,
2013-04-19 09:43:00,64.4,51.6,28.15,South,180,10.0,12.0,63,0.00,,,0.00,meteohub,2013-04-19 13:43:00,
2013-04-19 09:48:00,64.9,52.5,28.15,SSE,158,8.0,12.0,64,0.00,,,0.00,meteohub,2013-04-19 13:48:00,
2013-04-19 09:53:00,64.8,51.8,28.15,ESE,113,8.0,10.0,63,0.00,,,0.00,meteohub,2013-04-19 13:53:00,
2013-04-19 09:58:00,64.9,52.0,28.15,SSE,158,4.0,10.0,63,0.00,,,0.00,meteohub,2013-04-19 13:58:00,
2013-04-19 10:03:00,65.3,52.3,28.15,SW,225,9.0,15.0,63,0.00,,,0.00,meteohub,2013-04-19 14:03:00,
2013-04-19 10:08:00,65.1,52.2,28.15,NW,315,6.0,15.0,63,0.00,,,0.00,meteohub,2013-04-19 14:08:00,
2013-04-19 10:13:00,64.4,52.0,28.16,West,270,4.0,15.0,64,0.00,,,0.00,meteohub,2013-04-19 14:13:00,
2013-04-19 10:18:00,64.0,52.5,28.15,SE,135,15.0,15.0,66,0.00,,,0.00,meteohub,2013-04-19 14:18:00,
2013-04-19 10:23:00,63.9,52.7,28.15,SW,225,7.0,15.0,67,0.00,,,0.00,meteohub,2013-04-19 14:23:00,
2013-04-19 10:28:00,63.7,52.9,28.15,South,180,8.0,15.0,68,0.00,,,0.00,meteohub,2013-04-19 14:28:00,
2013-04-19 10:33:00,62.8,52.9,28.15,SSE,158,6.0,15.0,70,0.00,,,0.00,meteohub,2013-04-19 14:33:00,
2013-04-19 10:38:00,62.4,53.6,28.15,SW,225,11.0,16.0,73,0.00,,,0.00,meteohub,2013-04-19 14:38:00,
2013-04-19 10:44:00,62.2,53.4,28.15,SE,135,6.0,16.0,73,0.00,,,0.00,meteohub,2013-04-19 14:44:00,
2013-04-19 10:49:00,62.8,53.2,28.14,East,90,10.0,16.0,71,0.00,,,0.00,meteohub,2013-04-19 14:49:00,
2013-04-19 10:54:00,63.3,53.4,28.14,SE,135,8.0,18.0,70,0.00,,,0.00,meteohub,2013-04-19 14:54:00,
2013-04-19 10:59:00,63.9,53.4,28.13,South,180,9.0,18.0,69,0.00,,,0.00,meteohub,2013-04-19 14:59:00,
2013-04-19 11:04:00,64.2,53.8,28.14,South,180,9.0,18.0,69,0.00,,,0.00,meteohub,2013-04-19 15:04:00,
2013-04-19 11:09:00,63.3,53.1,28.13,South,180,7.0,14.0,69,0.00,,,0.00,meteohub,2013-04-19 15:09:00,
2013-04-19 11:14:00,62.6,53.1,28.13,SE,135,4.0,14.0,71,0.00,,,0.00,meteohub,2013-04-19 15:14:00,
2013-04-19 11:19:00,62.2,53.4,28.12,SSE,158,8.0,12.0,73,0.00,,,0.00,meteohub,2013-04-19 15:19:00,
2013-04-19 11:24:00,61.9,53.8,28.13,SE,135,11.0,17.0,75,0.00,,,0.00,meteohub,2013-04-19 15:24:00,
2013-04-19 11:29:00,61.2,54.0,28.12,SE,135,11.0,17.0,77,0.00,,,0.00,meteohub,2013-04-19 15:29:00,
2013-04-19 11:34:00,60.6,54.5,28.12,South,180,11.0,17.0,80,0.00,,,0.00,meteohub,2013-04-19 15:34:00,
2013-04-19 11:39:00,60.6,54.7,28.12,SE,135,8.0,16.0,81,0.00,,,0.00,meteohub,2013-04-19 15:39:00,
2013-04-19 11:44:00,60.6,54.7,28.12,South,180,13.0,16.0,81,0.00,,,0.00,meteohub,2013-04-19 15:44:00,
2013-04-19 11:49:00,60.6,54.7,28.11,SE,135,11.0,16.0,81,0.00,,,0.00,meteohub,2013-04-19 15:49:00,
2013-04-19 11:55:00,60.6,55.0,28.11,South,180,7.0,13.0,82,0.00,,,0.00,meteohub,2013-04-19 15:55:00,
2013-04-19 12:00:00,60.6,55.0,28.11,South,180,7.0,13.0,82,0.00,,,0.00,meteohub,2013-04-19 16:00:00,
2013-04-19 12:05:00,60.6,55.0,28.10,South,180,6.0,12.0,82,0.00,,,0.00,meteohub,2013-04-19 16:05:00,
2013-04-19 12:10:00,60.4,55.2,28.10,SE,135,12.0,12.0,83,0.00,,,0.01,meteohub,2013-04-19 16:10:00,
2013-04-19 12:15:00,60.4,55.2,28.09,SE,135,11.0,14.0,83,0.01,,,0.01,meteohub,2013-04-19 16:15:00,
2013-04-19 12:20:00,60.8,54.9,28.10,SE,135,8.0,14.0,81,0.01,,,0.01,meteohub,2013-04-19 16:20:00,
2013-04-19 12:25:00,61.2,55.2,28.10,SE,135,2.0,15.0,81,0.01,,,0.01,meteohub,2013-04-19 16:25:00,
2013-04-19 12:30:00,61.5,55.2,28.10,SE,135,6.0,15.0,80,0.01,,,0.01,meteohub,2013-04-19 16:30:00,
2013-04-19 12:35:00,61.5,55.2,28.10,East,90,6.0,15.0,80,0.01,,,0.01,meteohub,2013-04-19 16:35:00,
2013-04-19 12:40:00,61.9,55.2,28.10,SE,135,11.0,15.0,79,0.01,,,0.01,meteohub,2013-04-19 16:40:00,
2013-04-19 12:45:00,62.4,55.4,28.10,SW,225,10.0,15.0,78,0.01,,,0.01,meteohub,2013-04-19 16:45:00,
2013-04-19 12:50:00,62.8,54.7,28.09,SE,135,8.0,15.0,75,0.01,,,0.01,meteohub,2013-04-19 16:50:00,
2013-04-19 12:55:00,63.0,54.5,28.09,SE,135,18.0,18.0,74,0.01,,,0.01,meteohub,2013-04-19 16:55:00,
2013-04-19 13:00:00,63.5,54.7,28.08,South,180,13.0,18.0,73,0.01,,,0.01,meteohub,2013-04-19 17:00:00,
2013-04-19 13:06:00,63.7,54.5,28.08,SE,135,11.0,18.0,72,0.01,,,0.01,meteohub,2013-04-19 17:06:00,
2013-04-19 13:11:00,63.9,55.0,28.08,SE,135,15.0,18.0,73,0.00,,,0.01,meteohub,2013-04-19 17:11:00,
2013-04-19 13:16:00,64.0,54.9,28.07,SE,135,5.0,18.0,72,0.00,,,0.01,meteohub,2013-04-19 17:16:00,
2013-04-19 13:21:00,64.0,54.5,28.07,ESE,113,6.0,15.0,71,0.00,,,0.01,meteohub,2013-04-19 17:21:00,
2013-04-19 13:26:00,63.9,54.0,28.07,ESE,113,13.0,15.0,70,0.00,,,0.01,meteohub,2013-04-19 17:26:00,
2013-04-19 13:31:00,64.0,54.1,28.08,SW,225,7.0,15.0,70,0.00,,,0.01,meteohub,2013-04-19 17:31:00,
2013-04-19 13:36:00,64.0,54.1,28.07,SW,225,11.0,15.0,70,0.00,,,0.01,meteohub,2013-04-19 17:36:00,
2013-04-19 13:41:00,64.2,54.3,28.07,East,90,14.0,15.0,70,0.00,,,0.01,meteohub,2013-04-19 17:41:00,
2013-04-19 13:46:00,64.2,54.3,28.08,SE,135,8.0,14.0,70,0.00,,,0.01,meteohub,2013-04-19 17:46:00,
2013-04-19 13:51:00,63.9,54.0,28.07,South,180,7.0,17.0,70,0.00,,,0.01,meteohub,2013-04-19 17:51:00,
2013-04-19 13:56:00,63.7,54.1,28.07,South,180,7.0,20.0,71,0.00,,,0.01,meteohub,2013-04-19 17:56:00,
2013-04-19 14:01:00,63.7,54.1,28.07,South,180,5.0,20.0,71,0.00,,,0.01,meteohub,2013-04-19 18:01:00,
2013-04-19 14:06:00,63.7,54.1,28.07,ESE,113,7.0,20.0,71,0.00,,,0.01,meteohub,2013-04-19 18:06:00,
2013-04-19 14:11:00,63.7,54.1,28.07,SSE,158,7.0,14.0,71,0.00,,,0.01,meteohub,2013-04-19 18:11:00,
2013-04-19 14:16:00,63.7,54.5,28.06,East,90,8.0,14.0,72,0.00,,,0.01,meteohub,2013-04-19 18:16:00,
2013-04-19 14:22:00,63.5,54.3,28.06,South,180,7.0,14.0,72,0.00,,,0.01,meteohub,2013-04-19 18:22:00,
2013-04-19 14:27:00,63.5,54.3,28.06,South,180,7.0,12.0,72,0.00,,,0.01,meteohub,2013-04-19 18:27:00,
2013-04-19 14:32:00,63.7,54.9,28.06,SE,135,8.0,9.0,73,0.00,,,0.01,meteohub,2013-04-19 18:32:00,
2013-04-19 14:37:00,64.0,54.9,28.06,SE,135,3.0,17.0,72,0.00,,,0.01,meteohub,2013-04-19 18:37:00,
2013-04-19 14:42:00,64.0,54.9,28.06,East,90,4.0,17.0,72,0.00,,,0.01,meteohub,2013-04-19 18:42:00,
2013-04-19 14:47:00,64.0,54.9,28.06,SE,135,4.0,17.0,72,0.00,,,0.01,meteohub,2013-04-19 18:47:00,
2013-04-19 14:52:00,64.2,55.0,28.05,SE,135,6.0,11.0,72,0.00,,,0.01,meteohub,2013-04-19 18:52:00,
2013-04-19 14:57:00,64.4,55.2,28.05,NE,45,3.0,13.0,72,0.00,,,0.01,meteohub,2013-04-19 18:57:00,
2013-04-19 15:02:00,64.4,55.2,28.05,NW,315,4.0,13.0,72,0.00,,,0.01,meteohub,2013-04-19 19:02:00,
2013-04-19 15:07:00,64.2,55.4,28.05,SW,225,5.0,13.0,73,0.00,,,0.01,meteohub,2013-04-19 19:07:00,
2013-04-19 15:12:00,64.2,55.4,28.04,South,180,6.0,14.0,73,0.00,,,0.01,meteohub,2013-04-19 19:12:00,
2013-04-19 15:17:00,64.2,56.5,28.04,SE,135,6.0,14.0,76,0.00,,,0.01,meteohub,2013-04-19 19:17:00,
2013-04-19 15:22:00,64.2,56.5,28.03,SW,225,8.0,14.0,76,0.00,,,0.01,meteohub,2013-04-19 19:22:00,
2013-04-19 15:27:00,64.6,56.1,28.02,East,90,5.0,8.0,74,0.00,,,0.01,meteohub,2013-04-19 19:27:00,
2013-04-19 15:32:00,65.1,56.3,28.02,South,180,2.0,11.0,73,0.00,,,0.01,meteohub,2013-04-19 19:32:00,
2013-04-19 15:37:00,65.3,56.5,28.01,West,270,7.0,11.0,73,0.00,,,0.01,meteohub,2013-04-19 19:37:00,
2013-04-19 15:42:00,65.3,56.5,28.00,South,180,8.0,11.0,73,0.00,,,0.01,meteohub,2013-04-19 19:42:00,
2013-04-19 15:47:00,65.3,56.5,28.01,South,180,9.0,9.0,73,0.00,,,0.01,meteohub,2013-04-19 19:47:00,
2013-04-19 15:52:00,65.3,56.5,28.00,SE,135,9.0,9.0,73,0.00,,,0.01,meteohub,2013-04-19 19:52:00,
2013-04-19 15:57:00,65.3,56.5,28.00,SSE,158,6.0,9.0,73,0.00,,,0.01,meteohub,2013-04-19 19:57:00,
2013-04-19 16:02:00,65.3,56.5,27.99,SE,135,11.0,11.0,73,0.01,,,0.02,meteohub,2013-04-19 20:02:00,
2013-04-19 16:07:00,65.5,56.7,27.98,SE,135,12.0,12.0,73,0.01,,,0.02,meteohub,2013-04-19 20:07:00,
2013-04-19 16:12:00,65.5,56.7,27.97,South,180,11.0,17.0,73,0.01,,,0.02,meteohub,2013-04-19 20:12:00,
2013-04-19 16:17:00,65.5,56.7,27.96,ESE,113,6.0,18.0,73,0.01,,,0.02,meteohub,2013-04-19 20:17:00,
2013-04-19 16:22:00,65.7,56.8,27.97,South,180,11.0,18.0,73,0.01,,,0.02,meteohub,2013-04-19 20:22:00,
2013-04-19 16:27:00,65.8,57.0,27.96,SE,135,6.0,18.0,73,0.01,,,0.02,meteohub,2013-04-19 20:27:00,
2013-04-19 16:32:00,66.0,56.7,27.95,SE,135,13.0,21.0,72,0.01,,,0.02,meteohub,2013-04-19 20:32:00,
2013-04-19 16:37:00,66.2,56.5,27.95,South,180,13.0,21.0,71,0.01,,,0.02,meteohub,2013-04-19 20:37:00,
2013-04-19 16:42:00,66.4,56.7,27.95,SSE,158,12.0,21.0,71,0.01,,,0.02,meteohub,2013-04-19 20:42:00,
2013-04-19 16:47:00,66.4,56.7,27.94,South,180,3.0,21.0,71,0.01,,,0.02,meteohub,2013-04-19 20:47:00,
2013-04-19 16:52:00,66.4,57.0,27.94,SE,135,11.0,21.0,72,0.01,,,0.02,meteohub,2013-04-19 20:52:00,
2013-04-19 16:57:00,66.4,57.0,27.94,NE,45,9.0,21.0,72,0.00,,,0.02,meteohub,2013-04-19 20:57:00,
2013-04-19 17:02:00,66.2,56.8,27.94,SW,225,6.0,14.0,72,0.00,,,0.02,meteohub,2013-04-19 21:02:00,
2013-04-19 17:07:00,66.4,56.7,27.94,South,180,13.0,14.0,71,0.00,,,0.02,meteohub,2013-04-19 21:07:00,
2013-04-19 17:12:00,66.7,57.0,27.95,SW,225,9.0,17.0,71,0.00,,,0.02,meteohub,2013-04-19 21:12:00,
2013-04-19 17:17:00,66.9,57.2,27.93,SE,135,13.0,17.0,71,0.00,,,0.02,meteohub,2013-04-19 21:17:00,
2013-04-19 17:22:00,66.7,57.0,27.94,SSE,158,7.0,17.0,71,0.00,,,0.02,meteohub,2013-04-19 21:22:00,
2013-04-19 17:27:00,66.4,56.7,27.94,SE,135,8.0,17.0,71,0.00,,,0.02,meteohub,2013-04-19 21:27:00,
2013-04-19 17:32:00,66.4,56.7,27.94,West,270,5.0,17.0,71,0.00,,,0.02,meteohub,2013-04-19 21:32:00,
2013-04-19 17:37:00,66.6,56.8,27.94,SE,135,8.0,17.0,71,0.00,,,0.02,meteohub,2013-04-19 21:37:00,
2013-04-19 17:42:00,66.7,57.0,27.94,SE,135,16.0,17.0,71,0.00,,,0.02,meteohub,2013-04-19 21:42:00,
2013-04-19 17:47:00,66.7,57.0,27.94,South,180,12.0,16.0,71,0.00,,,0.02,meteohub,2013-04-19 21:47:00,
2013-04-19 17:52:00,66.4,56.7,27.94,SE,135,8.0,17.0,71,0.00,,,0.02,meteohub,2013-04-19 21:52:00,
2013-04-19 17:57:00,66.6,56.8,27.94,East,90,6.0,17.0,71,0.00,,,0.02,meteohub,2013-04-19 21:57:00,
2013-04-19 18:02:00,66.4,56.7,27.95,South,180,8.0,17.0,71,0.00,,,0.02,meteohub,2013-04-19 22:02:00,
2013-04-19 18:07:00,66.4,56.7,27.94,East,90,5.0,16.0,71,0.00,,,0.02,meteohub,2013-04-19 22:07:00,
2013-04-19 18:12:00,66.2,56.8,27.95,SE,135,17.0,17.0,72,0.00,,,0.02,meteohub,2013-04-19 22:12:00,
2013-04-19 18:17:00,65.8,57.4,27.95,South,180,6.0,17.0,74,0.00,,,0.02,meteohub,2013-04-19 22:17:00,
2013-04-19 18:22:00,65.3,57.2,27.94,SE,135,8.0,17.0,75,0.00,,,0.02,meteohub,2013-04-19 22:22:00,
2013-04-19 18:27:00,64.8,57.4,27.94,East,90,8.0,17.0,77,0.00,,,0.02,meteohub,2013-04-19 22:27:00,
2013-04-19 18:33:00,64.0,57.4,27.95,SE,135,5.0,10.0,79,0.01,,,0.04,meteohub,2013-04-19 22:33:00,
2013-04-19 18:38:00,63.7,57.4,27.94,South,180,5.0,10.0,80,0.01,,,0.04,meteohub,2013-04-19 22:38:00,
2013-04-19 18:43:00,63.3,57.7,27.95,SE,135,6.0,10.0,82,0.02,,,0.05,meteohub,2013-04-19 22:43:00,
2013-04-19 18:48:00,63.1,57.9,27.95,SE,135,4.0,7.0,83,0.04,,,0.06,meteohub,2013-04-19 22:48:00,
2013-04-19 18:53:00,63.0,58.1,27.94,SW,225,4.0,7.0,84,0.04,,,0.06,meteohub,2013-04-19 22:53:00,
2013-04-19 18:59:00,62.8,57.9,27.94,South,180,8.0,8.0,84,0.05,,,0.07,meteohub,2013-04-19 22:59:00,
2013-04-19 19:04:00,62.4,58.1,27.93,SE,135,4.0,9.0,86,0.06,,,0.08,meteohub,2013-04-19 23:04:00,
2013-04-19 19:09:00,62.2,58.3,27.93,ESE,113,3.0,9.0,87,0.08,,,0.11,meteohub,2013-04-19 23:09:00,
2013-04-19 19:14:00,62.1,58.5,27.92,SE,135,5.0,9.0,88,0.08,,,0.11,meteohub,2013-04-19 23:14:00,
2013-04-19 19:19:00,62.1,58.8,27.93,South,180,5.0,8.0,89,0.09,,,0.12,meteohub,2013-04-19 23:19:00,
2013-04-19 19:24:00,62.1,58.8,27.92,SSE,158,5.0,11.0,89,0.11,,,0.13,meteohub,2013-04-19 23:24:00,
2013-04-19 19:29:00,61.9,58.6,27.93,South,180,7.0,11.0,89,0.11,,,0.13,meteohub,2013-04-19 23:29:00,
2013-04-19 19:34:00,62.1,58.8,27.92,SE,135,7.0,11.0,89,0.12,,,0.15,meteohub,2013-04-19 23:34:00,
2013-04-19 19:39:00,61.7,58.5,27.92,SSE,158,7.0,8.0,89,0.15,,,0.19,meteohub,2013-04-19 23:39:00,
2013-04-19 19:45:00,61.7,58.5,27.92,South,180,4.0,8.0,89,0.17,,,0.21,meteohub,2013-04-19 23:45:00,
2013-04-19 19:50:00,61.5,58.3,27.92,SE,135,4.0,8.0,89,0.17,,,0.22,meteohub,2013-04-19 23:50:00,
2013-04-19 19:55:00,61.5,58.3,27.92,SSE,158,5.0,8.0,89,0.17,,,0.22,meteohub,2013-04-19 23:55:00,
2013-04-19 20:00:00,61.5,58.3,27.91,SE,135,4.0,9.0,89,0.15,,,0.24,meteohub,2013-04-20 00:00:00,
2013-04-19 20:05:00,61.5,58.3,27.91,SE,135,4.0,9.0,89,0.15,,,0.24,meteohub,2013-04-20 00:05:00,
2013-04-19 20:10:00,61.5,58.3,27.91,South,180,3.0,9.0,89,0.13,,,0.24,meteohub,2013-04-20 00:10:00,
2013-04-19 20:15:00,61.5,58.3,27.91,South,180,8.0,9.0,89,0.12,,,0.24,meteohub,2013-04-20 00:15:00,
2013-04-19 20:20:00,61.5,58.3,27.91,SSW,203,6.0,14.0,89,0.11,,,0.24,meteohub,2013-04-20 00:20:00,
2013-04-19 20:25:00,61.5,58.3,27.91,SE,135,11.0,14.0,89,0.12,,,0.25,meteohub,2013-04-20 00:25:00,
2013-04-19 20:30:00,61.7,58.5,27.91,South,180,11.0,11.0,89,0.09,,,0.25,meteohub,2013-04-20 00:30:00,
2013-04-19 20:35:00,61.7,58.5,27.91,WSW,248,9.0,11.0,89,0.07,,,0.26,meteohub,2013-04-20 00:35:00,
2013-04-19 20:40:00,61.7,58.5,27.90,SE,135,11.0,11.0,89,0.07,,,0.28,meteohub,2013-04-20 00:40:00,
2013-04-19 20:45:00,61.7,58.5,27.90,South,180,12.0,12.0,89,0.07,,,0.30,meteohub,2013-04-20 00:45:00,
2013-04-19 20:50:00,61.9,58.6,27.90,SE,135,8.0,12.0,89,0.08,,,0.31,meteohub,2013-04-20 00:50:00,
2013-04-19 20:55:00,61.7,58.5,27.90,SE,135,8.0,12.0,89,0.09,,,0.32,meteohub,2013-04-20 00:55:00,
2013-04-19 21:01:00,61.5,58.3,27.90,SSW,203,8.0,12.0,89,0.11,,,0.34,meteohub,2013-04-20 01:01:00,
2013-04-19 21:06:00,61.5,58.3,27.89,SE,135,7.0,12.0,89,0.12,,,0.35,meteohub,2013-04-20 01:06:00,
2013-04-19 21:11:00,61.5,58.3,27.90,South,180,5.0,12.0,89,0.13,,,0.37,meteohub,2013-04-20 01:11:00,
2013-04-19 21:16:00,61.5,58.3,27.92,East,90,7.0,12.0,89,0.19,,,0.41,meteohub,2013-04-20 01:16:00,
2013-04-19 21:21:00,61.3,58.1,27.94,NE,45,6.0,11.0,89,0.26,,,0.46,meteohub,2013-04-20 01:21:00,
2013-04-19 21:26:00,61.5,57.9,27.94,NW,315,8.0,17.0,88,0.28,,,0.53,meteohub,2013-04-20 01:26:00,
2013-04-19 21:31:00,62.4,58.1,27.94,NW,315,6.0,17.0,86,0.30,,,0.54,meteohub,2013-04-20 01:31:00,
2013-04-19 21:36:00,62.1,57.6,27.96,West,270,4.0,17.0,85,0.28,,,0.56,meteohub,2013-04-20 01:36:00,
2013-04-19 21:41:00,62.2,57.4,27.96,ESE,113,2.0,11.0,84,0.28,,,0.57,meteohub,2013-04-20 01:41:00,
2013-04-19 21:46:00,62.2,56.7,27.96,NW,315,15.0,15.0,82,0.30,,,0.59,meteohub,2013-04-20 01:46:00,
2013-04-19 21:51:00,62.4,56.5,27.95,South,180,7.0,15.0,81,0.30,,,0.60,meteohub,2013-04-20 01:51:00,
2013-04-19 21:56:00,61.5,55.6,27.95,SW,225,3.0,15.0,81,0.27,,,0.60,meteohub,2013-04-20 01:56:00,
2013-04-19 22:01:00,60.8,55.2,27.96,West,270,4.0,15.0,82,0.28,,,0.63,meteohub,2013-04-20 02:01:00,
2013-04-19 22:06:00,60.8,55.6,27.96,North,0,2.0,7.0,83,0.28,,,0.64,meteohub,2013-04-20 02:06:00,
2013-04-19 22:11:00,60.4,55.6,27.96,West,270,2.0,7.0,84,0.27,,,0.65,meteohub,2013-04-20 02:11:00,
2013-04-19 22:17:00,60.1,55.6,27.97,NE,45,4.0,7.0,85,0.24,,,0.66,meteohub,2013-04-20 02:17:00,
2013-04-19 22:22:00,59.7,55.6,27.99,West,270,7.0,7.0,86,0.18,,,0.67,meteohub,2013-04-20 02:22:00,
2013-04-19 22:27:00,59.5,55.6,27.99,North,0,6.0,10.0,87,0.17,,,0.70,meteohub,2013-04-20 02:27:00,
2013-04-19 22:32:00,58.3,54.1,28.00,North,0,6.0,11.0,86,0.18,,,0.72,meteohub,2013-04-20 02:32:00,
2013-04-19 22:37:00,57.2,53.1,28.00,NW,315,5.0,11.0,86,0.19,,,0.74,meteohub,2013-04-20 02:37:00,
2013-04-19 22:42:00,56.5,52.7,28.00,NE,45,8.0,11.0,87,0.20,,,0.77,meteohub,2013-04-20 02:42:00,
2013-04-19 22:47:00,55.4,51.6,28.00,NW,315,3.0,11.0,87,0.20,,,0.79,meteohub,2013-04-20 02:47:00,
2013-04-19 22:52:00,54.9,51.4,27.99,North,0,9.0,11.0,88,0.21,,,0.81,meteohub,2013-04-20 02:52:00,
2013-04-19 22:57:00,54.3,50.9,27.99,NE,45,5.0,11.0,88,0.24,,,0.84,meteohub,2013-04-20 02:57:00,
2013-04-19 23:02:00,53.8,50.4,27.99,West,270,4.0,11.0,88,0.24,,,0.85,meteohub,2013-04-20 03:02:00,
2013-04-19 23:07:00,53.4,50.0,27.99,North,0,8.0,11.0,88,0.24,,,0.87,meteohub,2013-04-20 03:07:00,
2013-04-19 23:12:00,53.1,49.6,27.98,West,270,4.0,11.0,88,0.24,,,0.89,meteohub,2013-04-20 03:12:00,
2013-04-19 23:17:00,52.7,49.3,27.99,NW,315,4.0,8.0,88,0.24,,,0.90,meteohub,2013-04-20 03:17:00,
2013-04-19 23:22:00,52.3,48.9,27.98,North,0,4.0,8.0,88,0.24,,,0.91,meteohub,2013-04-20 03:22:00,
2013-04-19 23:27:00,52.0,48.9,27.98,NW,315,4.0,11.0,89,0.22,,,0.92,meteohub,2013-04-20 03:27:00,
2013-04-19 23:32:00,52.0,48.9,27.99,NW,315,4.0,11.0,89,0.20,,,0.92,meteohub,2013-04-20 03:32:00,
2013-04-19 23:37:00,51.6,48.7,27.98,NW,315,2.0,11.0,90,0.18,,,0.92,meteohub,2013-04-20 03:37:00,
2013-04-19 23:42:00,51.4,48.6,27.98,NE,45,9.0,9.0,90,0.15,,,0.92,meteohub,2013-04-20 03:42:00,
2013-04-19 23:47:00,50.9,48.0,27.99,NE,45,11.0,11.0,90,0.13,,,0.92,meteohub,2013-04-20 03:47:00,
2013-04-19 23:52:00,50.5,47.5,27.99,NNW,338,7.0,11.0,89,0.09,,,0.92,meteohub,2013-04-20 03:52:00,
2013-04-19 23:57:00,50.2,46.8,27.99,North,0,8.0,14.0,88,0.09,,,0.93,meteohub,2013-04-20 03:57:00,